Time,TemperatureF,DewpointF,PressureIn,WindDirection,WindDirectionDegrees,WindSpeedMPH,WindSpeedGustMPH,Humidity,HourlyPrecipIn,Conditions,Clouds,dailyrainin,SoftwareType,DateUTC
2013-12-23 00:01:00,53.6,51.2,29.98,ESE,113,0.0,0.0,92,0.00,,OVC005,0.00,VWS V14.01,2013-12-23 05:01:00,
2013-12-23 00:02:00,53.6,51.2,29.98,ESE,113,0.0,0.0,92,0.00,,OVC004,0.00,VWS V14.01,2013-12-23 05:02:00,
2013-12-23 00:07:00,53.4,51.2,29.98,ESE,113,0.0,0.0,92,0.00,,OVC004,0.00,VWS V14.01,2013-12-23 05:07:00,
2013-12-23 00:12:00,53.4,51.2,29.98,ESE,113,0.0,0.0,92,0.00,,OVC004,0.00,VWS V14.01,2013-12-23 05:12:00,
2013-12-23 00:17:00,53.4,51.2,29.98,ESE,113,0.0,0.0,92,0.00,,OVC004,0.00,VWS V14.01,2013-12-23 05:17:00,
2013-12-23 00:22:00,53.2,51.1,29.98,ESE,113,0.0,0.0,92,0.00,,OVC004,0.00,VWS V14.01,2013-12-23 05:22:00,
2013-12-23 00:27:00,53.4,51.4,29.98,ESE,113,0.0,0.0,93,0.00,,OVC004,0.00,VWS V14.01,2013-12-23 05:27:00,
2013-12-23 00:32:00,53.4,51.6,29.98,ESE,113,0.0,0.0,94,0.00,,OVC004,0.00,VWS V14.01,2013-12-23 05:32:00,
2013-12-23 00:37:00,53.4,51.6,29.98,ESE,113,0.0,0.0,94,0.00,,OVC004,0.00,VWS V14.01,2013-12-23 05:37:00,
2013-12-23 00:42:00,53.2,51.5,29.98,ESE,113,0.0,0.0,94,0.00,,OVC004,0.00,VWS V14.01,2013-12-23 05:42:00,
2013-12-23 00:47:00,53.1,51.5,29.98,ESE,113,0.0,0.0,94,0.00,,OVC004,0.00,VWS V14.01,2013-12-23 05:47:00,
2013-12-23 00:52:00,52.9,51.3,29.98,ESE,113,0.0,0.0,94,0.00,,OVC004,0.00,VWS V14.01,2013-12-23 05:52:00,
2013-12-23 00:57:00,52.7,51.1,29.98,ESE,113,0.0,0.0,94,0.00,,OVC004,0.00,VWS V14.01,2013-12-23 05:57:00,
2013-12-23 01:02:00,52.5,50.9,29.98,ESE,113,0.0,0.0,94,0.00,,OVC003,0.00,VWS V14.01,2013-12-23 06:02:00,
2013-12-23 01:07:00,52.3,50.8,29.98,ESE,113,0.0,0.0,94,0.00,,OVC003,0.00,VWS V14.01,2013-12-23 06:07:00,
2013-12-23 01:11:00,52.3,50.8,29.98,ESE,113,0.0,0.0,94,0.00,,OVC003,0.00,VWS V14.01,2013-12-23 06:11:00,
2013-12-23 01:17:00,52.3,50.8,29.98,ESE,113,0.0,0.0,94,0.00,,OVC003,0.00,VWS V14.01,2013-12-23 06:17:00,
2013-12-23 01:21:00,52.3,51.0,29.98,ESE,113,0.0,0.0,95,0.00,,OVC003,0.00,VWS V14.01,2013-12-23 06:21:00,
2013-12-23 01:26:00,52.3,51.0,29.98,ESE,113,0.0,0.0,95,0.00,,OVC003,0.00,VWS V14.01,2013-12-23 06:26:00,
2013-12-23 01:31:00,52.3,51.0,29.98,ESE,113,0.0,0.0,95,0.00,,OVC003,0.00,VWS V14.01,2013-12-23 06:31:00,
2013-12-23 01:36:00,52.3,51.0,29.98,ESE,113,0.0,0.0,95,0.00,,OVC003,0.00,VWS V14.01,2013-12-23 06:36:00,
2013-12-23 01:41:00,52.3,51.0,29.98,ESE,113,0.0,0.0,95,0.00,,OVC003,0.00,VWS V14.01,2013-12-23 06:41:00,
2013-12-23 01:46:00,52.3,51.1,29.98,ESE,113,0.0,0.0,96,0.00,,OVC003,0.00,VWS V14.01,2013-12-23 06:46:00,
2013-12-23 01:51:00,52.3,51.1,29.98,ESE,113,0.0,0.0,96,0.00,,OVC003,0.00,VWS V14.01,2013-12-23 06:51:00,
2013-12-23 01:56:00,52.2,51.2,29.98,ESE,113,0.0,0.0,96,0.00,,OVC003,0.00,VWS V14.01,2013-12-23 06:56:00,
2013-12-23 02:01:00,52.2,51.2,29.98,ESE,113,0.0,0.0,96,0.00,,OVC003,0.00,VWS V14.01,2013-12-23 07:01:00,
2013-12-23 02:06:00,52.0,51.0,29.98,ESE,113,0.0,0.0,96,0.00,,OVC003,0.00,VWS V14.01,2013-12-23 07:06:00,
2013-12-23 02:11:00,52.0,51.0,29.98,ESE,113,0.0,0.0,96,0.00,,OVC003,0.00,VWS V14.01,2013-12-23 07:11:00,
2013-12-23 02:16:00,51.8,50.8,29.98,ESE,113,0.0,0.0,96,0.00,,OVC003,0.00,VWS V14.01,2013-12-23 07:16:00,
2013-12-23 02:21:00,52.0,51.0,29.98,ESE,113,0.0,0.0,96,0.00,,OVC003,0.00,VWS V14.01,2013-12-23 07:21:00,
2013-12-23 02:26:00,52.0,51.2,29.98,ESE,113,0.0,0.0,97,0.00,,OVC003,0.00,VWS V14.01,2013-12-23 07:26:00,
2013-12-23 02:31:00,52.0,51.2,29.98,ESE,113,0.0,0.0,97,0.00,,OVC003,0.00,VWS V14.01,2013-12-23 07:31:00,
2013-12-23 02:36:00,52.2,51.3,29.98,ESE,113,0.0,0.0,97,0.00,,OVC003,0.00,VWS V14.01,2013-12-23 07:36:00,
2013-12-23 02:41:00,52.2,51.3,29.98,ESE,113,0.0,0.0,97,0.00,,OVC003,0.00,VWS V14.01,2013-12-23 07:41:00,
2013-12-23 02:46:00,52.3,51.5,29.98,ESE,113,0.0,0.0,97,0.00,,OVC003,0.00,VWS V14.01,2013-12-23 07:46:00,
2013-12-23 02:51:00,52.7,52.1,29.98,ESE,113,0.0,0.0,98,0.00,,OVC003,0.00,VWS V14.01,2013-12-23 07:51:00,
2013-12-23 02:56:00,52.7,52.1,29.98,ESE,113,0.0,0.0,98,0.00,,OVC003,0.00,VWS V14.01,2013-12-23 07:56:00,
2013-12-23 03:01:00,52.9,52.2,29.98,ESE,113,0.0,0.0,98,0.00,,OVC019,0.00,VWS V14.01,2013-12-23 08:01:00,
2013-12-23 03:06:00,53.1,52.4,29.98,ESE,113,0.0,0.0,98,0.00,,OVC019,0.00,VWS V14.01,2013-12-23 08:06:00,
2013-12-23 03:11:00,53.1,52.4,29.98,ESE,113,0.0,0.0,98,0.00,,OVC019,0.00,VWS V14.01,2013-12-23 08:11:00,
2013-12-23 03:16:00,53.1,52.4,29.98,ESE,113,0.0,0.0,98,0.00,,OVC019,0.00,VWS V14.01,2013-12-23 08:16:00,
2013-12-23 03:21:00,53.1,52.6,29.98,ESE,113,0.0,0.0,98,0.00,,OVC019,0.00,VWS V14.01,2013-12-23 08:21:00,
2013-12-23 03:26:00,53.1,52.6,29.98,ESE,113,0.0,0.0,98,0.00,,OVC019,0.00,VWS V14.01,2013-12-23 08:26:00,
2013-12-23 03:31:00,53.1,52.6,29.98,ESE,113,0.0,0.0,98,0.00,,OVC019,0.00,VWS V14.01,2013-12-23 08:31:00,
2013-12-23 03:36:00,52.9,52.4,29.98,ESE,113,0.0,0.0,98,0.00,,OVC019,0.00,VWS V14.01,2013-12-23 08:36:00,
2013-12-23 03:41:00,52.9,52.4,29.98,ESE,113,0.0,0.0,98,0.00,,OVC019,0.00,VWS V14.01,2013-12-23 08:41:00,
2013-12-23 03:46:00,52.9,52.4,29.98,ESE,113,0.0,0.0,98,0.00,,OVC019,0.00,VWS V14.01,2013-12-23 08:46:00,
2013-12-23 03:51:00,53.1,52.6,29.98,ESE,113,0.0,0.0,98,0.00,,OVC019,0.00,VWS V14.01,2013-12-23 08:51:00,
2013-12-23 03:56:00,53.2,52.8,29.98,ESE,113,0.0,0.0,98,0.00,,OVC019,0.00,VWS V14.01,2013-12-23 08:56:00,
2013-12-23 04:01:00,53.2,52.8,30.01,ESE,113,0.0,0.0,98,0.00,,-RA,0.00,VWS V14.01,2013-12-23 09:01:00,
2013-12-23 04:06:00,53.2,52.8,30.01,ESE,113,0.0,0.0,98,0.00,,-RA,0.00,VWS V14.01,2013-12-23 09:06:00,
2013-12-23 04:11:00,53.1,52.6,30.01,ESE,113,0.0,0.0,98,0.00,,-RA,0.00,VWS V14.01,2013-12-23 09:11:00,
2013-12-23 04:16:00,53.1,52.6,29.98,ESE,113,0.0,0.0,98,0.00,,-RA,0.00,VWS V14.01,2013-12-23 09:16:00,
2013-12-23 04:21:00,53.1,52.6,29.98,ESE,113,0.0,0.0,98,0.00,,-RA,0.00,VWS V14.01,2013-12-23 09:21:00,
2013-12-23 04:26:00,53.1,52.6,29.98,ESE,113,0.0,0.0,98,0.00,,-RA,0.00,VWS V14.01,2013-12-23 09:26:00,
2013-12-23 04:31:00,53.2,53.0,29.98,ESE,113,0.0,0.0,99,0.00,,-RA,0.00,VWS V14.01,2013-12-23 09:31:00,
2013-12-23 04:36:00,53.4,53.2,29.98,ESE,113,0.0,0.0,99,0.00,,-RA,0.00,VWS V14.01,2013-12-23 09:36:00,
2013-12-23 04:41:00,53.4,53.2,29.98,ESE,113,0.0,0.0,99,0.00,,-RA,0.00,VWS V14.01,2013-12-23 09:41:00,
2013-12-23 04:46:00,53.2,53.0,29.98,ESE,113,0.0,0.0,99,0.00,,-RA,0.00,VWS V14.01,2013-12-23 09:46:00,
2013-12-23 04:51:00,53.2,53.0,29.98,ESE,113,0.0,0.0,99,0.00,,-RA,0.00,VWS V14.01,2013-12-23 09:51:00,
2013-12-23 04:56:00,53.2,53.0,29.98,ESE,113,0.0,0.0,99,0.00,,-RA,0.00,VWS V14.01,2013-12-23 09:56:00,
2013-12-23 05:01:00,53.2,53.0,30.01,ESE,113,0.0,0.0,99,0.00,,-RA,0.00,VWS V14.01,2013-12-23 10:01:00,
2013-12-23 05:06:00,53.2,53.0,30.01,ESE,113,0.0,0.0,99,0.00,,-RA,0.00,VWS V14.01,2013-12-23 10:06:00,
2013-12-23 05:11:00,53.2,53.0,30.01,ESE,113,0.0,0.0,99,0.00,,-RA,0.00,VWS V14.01,2013-12-23 10:11:00,
2013-12-23 05:16:00,53.2,53.0,29.98,ESE,113,0.0,0.0,99,0.00,,-RA,0.00,VWS V14.01,2013-12-23 10:16:00,
2013-12-23 05:21:00,53.2,53.0,29.98,ESE,113,0.0,0.0,99,0.00,,-RA,0.00,VWS V14.01,2013-12-23 10:21:00,
2013-12-23 05:26:00,53.2,53.2,29.98,ESE,113,0.0,0.0,100,0.00,,-RA,0.00,VWS V14.01,2013-12-23 10:26:00,
2013-12-23 05:31:00,53.2,53.2,29.98,ESE,113,0.0,0.0,100,0.00,,-RA,0.00,VWS V14.01,2013-12-23 10:31:00,
2013-12-23 05:36:00,53.4,53.3,29.98,ESE,113,0.0,0.0,100,0.00,,-RA,0.00,VWS V14.01,2013-12-23 10:36:00,
2013-12-23 05:41:00,53.4,53.3,29.98,ESE,113,0.0,0.0,100,0.00,,-RA,0.00,VWS V14.01,2013-12-23 10:41:00,
2013-12-23 05:46:00,53.4,53.3,29.98,ESE,113,0.0,0.0,100,0.00,,-RA,0.00,VWS V14.01,2013-12-23 10:46:00,
2013-12-23 05:51:00,53.4,53.3,29.98,ESE,113,0.0,0.0,100,0.00,,-RA,0.00,VWS V14.01,2013-12-23 10:51:00,
2013-12-23 05:56:00,53.4,53.3,29.98,ESE,113,0.0,0.0,100,0.00,,-RA,0.00,VWS V14.01,2013-12-23 10:56:00,
2013-12-23 06:01:00,53.4,53.4,29.98,ESE,113,0.0,0.0,100,0.00,,-RA,0.00,VWS V14.01,2013-12-23 11:01:00,
2013-12-23 06:06:00,53.6,53.6,29.98,ESE,113,0.0,0.0,100,0.00,,-RA,0.00,VWS V14.01,2013-12-23 11:06:00,
2013-12-23 06:11:00,53.6,53.6,29.98,ESE,113,0.0,0.0,100,0.00,,-RA,0.00,VWS V14.01,2013-12-23 11:11:00,
2013-12-23 06:16:00,53.6,53.6,29.98,ESE,113,0.0,0.0,100,0.00,,-RA,0.00,VWS V14.01,2013-12-23 11:16:00,
2013-12-23 06:21:00,53.6,53.6,29.98,ESE,113,0.0,0.0,100,0.00,,-RA,0.00,VWS V14.01,2013-12-23 11:21:00,
2013-12-23 06:26:00,53.6,53.6,29.98,ESE,113,0.0,0.0,100,0.00,,-RA,0.00,VWS V14.01,2013-12-23 11:26:00,
2013-12-23 06:31:00,53.6,53.6,29.98,ESE,113,0.0,0.0,100,0.00,,-RA,0.00,VWS V14.01,2013-12-23 11:31:00,
2013-12-23 06:36:00,53.6,53.6,29.98,ESE,113,0.0,0.0,100,0.00,,-RA,0.00,VWS V14.01,2013-12-23 11:36:00,
2013-12-23 06:41:00,53.6,53.6,29.98,ESE,113,0.0,0.0,100,0.00,,-RA,0.00,VWS V14.01,2013-12-23 11:41:00,
2013-12-23 06:46:00,53.4,53.4,30.01,ESE,113,0.0,0.0,100,0.00,,-RA,0.00,VWS V14.01,2013-12-23 11:46:00,
2013-12-23 06:51:00,53.2,53.2,30.01,ESE,113,0.0,0.0,100,0.00,,-RA,0.00,VWS V14.01,2013-12-23 11:51:00,
2013-12-23 06:56:00,53.1,53.1,30.01,ESE,113,0.0,0.0,100,0.00,,-RA,0.00,VWS V14.01,2013-12-23 11:56:00,
2013-12-23 07:01:00,52.9,52.9,30.01,ESE,113,0.0,0.0,100,0.00,,-RA,0.00,VWS V14.01,2013-12-23 12:01:00,
2013-12-23 07:06:00,53.1,53.1,30.01,ESE,113,0.0,0.0,100,0.00,,-RA,0.00,VWS V14.01,2013-12-23 12:06:00,
2013-12-23 07:11:00,53.1,53.1,30.01,ESE,113,0.0,0.0,100,0.00,,-RA,0.00,VWS V14.01,2013-12-23 12:11:00,
2013-12-23 07:16:00,53.1,53.1,30.01,ESE,113,0.0,0.0,100,0.00,,-RA,0.00,VWS V14.01,2013-12-23 12:16:00,
2013-12-23 07:21:00,53.1,53.1,30.01,ESE,113,0.0,0.0,100,0.00,,-RA,0.00,VWS V14.01,2013-12-23 12:21:00,
2013-12-23 07:26:00,53.1,53.1,30.01,ESE,113,0.0,0.0,100,0.00,,-RA,0.00,VWS V14.01,2013-12-23 12:26:00,
2013-12-23 07:31:00,53.1,53.1,30.01,ESE,113,0.0,0.0,100,0.00,,-RA,0.00,VWS V14.01,2013-12-23 12:31:00,
2013-12-23 07:36:00,53.2,53.2,30.01,ESE,113,0.0,0.0,100,0.00,,-RA,0.00,VWS V14.01,2013-12-23 12:36:00,
2013-12-23 07:41:00,53.2,53.2,30.01,ESE,113,0.0,0.0,100,0.00,,-RA,0.00,VWS V14.01,2013-12-23 12:41:00,
2013-12-23 07:46:00,53.2,53.2,30.01,ESE,113,0.0,0.0,100,0.00,,-RA,0.00,VWS V14.01,2013-12-23 12:46:00,
2013-12-23 07:51:00,53.2,53.2,30.01,ESE,112,0.0,0.0,100,0.00,,-RA,0.00,VWS V14.01,2013-12-23 12:51:00,
2013-12-23 07:56:00,53.2,53.2,30.01,ESE,113,0.0,0.0,100,0.00,,-RA,0.00,VWS V14.01,2013-12-23 12:56:00,
2013-12-23 08:01:00,53.2,53.2,29.98,ESE,113,0.0,0.0,100,0.00,,-RA,0.00,VWS V14.01,2013-12-23 13:01:00,
2013-12-23 08:06:00,53.2,53.2,29.98,ESE,113,0.0,0.0,100,0.00,,-RA,0.00,VWS V14.01,2013-12-23 13:06:00,
2013-12-23 08:11:00,53.6,53.6,29.98,ESE,113,0.0,0.0,100,0.00,,-RA,0.00,VWS V14.01,2013-12-23 13:11:00,
2013-12-23 08:16:00,53.6,53.6,30.01,ESE,113,0.0,0.0,100,0.00,,-RA,0.00,VWS V14.01,2013-12-23 13:16:00,
2013-12-23 08:21:00,53.8,53.8,30.01,ESE,113,0.0,0.0,100,0.00,,-RA,0.00,VWS V14.01,2013-12-23 13:21:00,
2013-12-23 08:26:00,53.8,53.8,30.01,ESE,113,0.0,0.0,100,0.00,,-RA,0.00,VWS V14.01,2013-12-23 13:26:00,
2013-12-23 08:31:00,53.8,53.8,30.01,ESE,113,0.0,0.0,100,0.04,,-RA,0.04,VWS V14.01,2013-12-23 13:31:00,
2013-12-23 08:36:00,53.6,53.6,30.01,ESE,113,0.0,0.0,100,0.04,,-RA,0.04,VWS V14.01,2013-12-23 13:36:00,
2013-12-23 08:41:00,53.4,53.4,30.01,ESE,113,0.0,0.0,100,0.04,,-RA,0.04,VWS V14.01,2013-12-23 13:41:00,
2013-12-23 08:46:00,53.4,53.4,30.01,ESE,113,0.0,0.0,100,0.04,,-RA,0.04,VWS V14.01,2013-12-23 13:46:00,
2013-12-23 08:51:00,53.6,53.6,30.01,ESE,113,0.0,0.0,100,0.04,,-RA,0.04,VWS V14.01,2013-12-23 13:51:00,
2013-12-23 08:56:00,54.0,54.0,30.01,ESE,113,0.0,0.0,100,0.04,,-RA,0.04,VWS V14.01,2013-12-23 13:56:00,
2013-12-23 09:01:00,54.1,54.1,30.01,ESE,113,0.0,0.0,100,0.04,,-RA,0.04,VWS V14.01,2013-12-23 14:01:00,
2013-12-23 09:06:00,54.3,54.3,30.01,ESE,113,0.0,0.0,100,0.04,,-RA,0.04,VWS V14.01,2013-12-23 14:06:00,
2013-12-23 09:11:00,54.1,54.1,30.01,ESE,113,0.0,0.0,100,0.04,,-RA,0.04,VWS V14.01,2013-12-23 14:11:00,
2013-12-23 09:16:00,54.3,54.3,30.01,ESE,113,0.0,0.0,100,0.04,,-RA,0.04,VWS V14.01,2013-12-23 14:16:00,
2013-12-23 09:21:00,54.3,54.3,30.01,ESE,113,0.0,0.0,100,0.08,,-RA,0.08,VWS V14.01,2013-12-23 14:21:00,
2013-12-23 09:26:00,54.5,54.5,30.01,ESE,113,0.0,0.0,100,0.08,,-RA,0.08,VWS V14.01,2013-12-23 14:26:00,
2013-12-23 09:31:00,54.5,54.5,30.01,ESE,113,0.0,0.0,100,0.04,,-RA,0.08,VWS V14.01,2013-12-23 14:31:00,
2013-12-23 09:36:00,54.3,54.3,30.01,ESE,113,0.0,0.0,100,0.08,,-RA,0.12,VWS V14.01,2013-12-23 14:36:00,
2013-12-23 09:41:00,54.3,54.3,30.01,ESE,113,0.0,0.0,100,0.08,,-RA,0.12,VWS V14.01,2013-12-23 14:41:00,
2013-12-23 09:46:00,54.1,54.1,30.01,ESE,113,0.0,0.0,100,0.08,,-RA,0.12,VWS V14.01,2013-12-23 14:46:00,
2013-12-23 09:51:00,54.1,54.1,30.01,ESE,113,0.0,0.0,100,0.08,,-RA,0.12,VWS V14.01,2013-12-23 14:51:00,
2013-12-23 09:56:00,54.0,54.0,30.01,ESE,113,0.0,0.0,100,0.08,,-RA,0.12,VWS V14.01,2013-12-23 14:56:00,
2013-12-23 10:01:00,54.0,54.0,30.01,SW,214,0.0,7.2,100,0.08,,,0.12,VWS V14.01,2013-12-23 15:01:00,
2013-12-23 10:06:00,53.8,53.8,30.01,East,94,0.0,0.0,100,0.12,,,0.16,VWS V14.01,2013-12-23 15:06:00,
2013-12-23 10:11:00,53.6,53.6,30.01,ESE,107,0.0,5.4,100,0.12,,,0.16,VWS V14.01,2013-12-23 15:11:00,
2013-12-23 10:16:00,53.4,53.4,30.01,ESE,107,0.0,4.5,100,0.12,,,0.16,VWS V14.01,2013-12-23 15:16:00,
2013-12-23 10:21:00,53.4,53.4,30.01,ESE,107,0.0,0.0,100,0.08,,,0.16,VWS V14.01,2013-12-23 15:21:00,
2013-12-23 10:26:00,53.2,53.2,30.01,ESE,107,0.0,0.0,100,0.08,,,0.16,VWS V14.01,2013-12-23 15:26:00,
2013-12-23 10:31:00,53.2,53.2,30.01,ESE,107,4.5,4.5,100,0.08,,,0.16,VWS V14.01,2013-12-23 15:31:00,
2013-12-23 10:36:00,53.1,53.1,30.01,ESE,108,0.0,0.0,100,0.12,,,0.20,VWS V14.01,2013-12-23 15:36:00,
2013-12-23 10:41:00,53.1,53.1,30.01,SE,130,0.0,4.5,100,0.08,,,0.20,VWS V14.01,2013-12-23 15:41:00,
2013-12-23 10:46:00,52.7,52.7,29.98,SSW,212,0.0,6.3,100,0.08,,,0.20,VWS V14.01,2013-12-23 15:46:00,
2013-12-23 10:51:00,52.2,52.2,29.98,ESE,102,0.0,4.5,100,0.08,,,0.20,VWS V14.01,2013-12-23 15:51:00,
2013-12-23 10:56:00,51.8,51.8,29.98,East,97,0.0,4.5,100,0.08,,,0.20,VWS V14.01,2013-12-23 15:56:00,
2013-12-23 11:01:00,51.6,51.6,29.98,ESE,118,0.0,0.0,100,0.08,,,0.20,VWS V14.01,2013-12-23 16:01:00,
2013-12-23 11:06:00,51.6,51.6,29.98,ESE,119,0.0,0.0,100,0.04,,,0.20,VWS V14.01,2013-12-23 16:06:00,
2013-12-23 11:11:00,51.6,51.6,29.98,ESE,118,0.0,0.0,100,0.04,,,0.20,VWS V14.01,2013-12-23 16:11:00,
2013-12-23 11:16:00,51.6,51.6,29.98,NE,39,0.0,0.0,100,0.04,,,0.20,VWS V14.01,2013-12-23 16:16:00,
2013-12-23 11:21:00,51.6,51.6,29.98,East,101,0.0,4.5,100,0.04,,,0.20,VWS V14.01,2013-12-23 16:21:00,
2013-12-23 11:26:00,51.6,51.6,29.98,ESE,102,0.0,0.0,100,0.04,,,0.20,VWS V14.01,2013-12-23 16:26:00,
2013-12-23 11:31:00,51.6,51.6,29.95,ESE,121,0.0,0.0,100,0.04,,,0.20,VWS V14.01,2013-12-23 16:31:00,
2013-12-23 11:36:00,51.6,51.6,29.95,East,91,5.4,5.4,100,0.00,,,0.20,VWS V14.01,2013-12-23 16:36:00,
2013-12-23 11:41:00,51.6,51.6,29.95,East,91,0.0,0.0,100,0.00,,,0.20,VWS V14.01,2013-12-23 16:41:00,
2013-12-23 11:46:00,51.6,51.6,29.95,East,91,0.0,0.0,100,0.00,,,0.20,VWS V14.01,2013-12-23 16:46:00,
2013-12-23 11:51:00,51.6,51.6,29.95,East,91,0.0,0.0,100,0.00,,,0.20,VWS V14.01,2013-12-23 16:51:00,
2013-12-23 11:56:00,51.6,51.6,29.95,East,91,0.0,0.0,100,0.00,,,0.20,VWS V14.01,2013-12-23 16:56:00,
2013-12-23 12:01:00,51.6,51.6,29.95,East,91,0.0,0.0,100,0.00,,,0.20,VWS V14.01,2013-12-23 17:01:00,
2013-12-23 12:06:00,51.4,51.4,29.95,East,91,0.0,0.0,100,0.04,,,0.24,VWS V14.01,2013-12-23 17:06:00,
2013-12-23 12:11:00,51.4,51.4,29.95,East,91,0.0,0.0,100,0.04,,,0.24,VWS V14.01,2013-12-23 17:11:00,
2013-12-23 12:16:00,51.4,51.4,29.92,East,91,0.0,6.3,100,0.04,,,0.24,VWS V14.01,2013-12-23 17:16:00,
2013-12-23 12:21:00,51.4,51.4,29.92,East,97,0.0,4.5,100,0.04,,,0.24,VWS V14.01,2013-12-23 17:21:00,
2013-12-23 12:26:00,51.3,51.3,29.92,ESE,115,0.0,0.0,100,0.04,,,0.24,VWS V14.01,2013-12-23 17:26:00,
2013-12-23 12:31:00,51.4,51.4,29.89,ESE,115,0.0,0.0,100,0.04,,,0.24,VWS V14.01,2013-12-23 17:31:00,
2013-12-23 12:36:00,51.4,51.4,29.89,East,100,0.0,0.0,100,0.04,,,0.24,VWS V14.01,2013-12-23 17:36:00,
2013-12-23 12:41:00,51.4,51.4,29.89,ESE,118,0.0,0.0,100,0.04,,,0.24,VWS V14.01,2013-12-23 17:41:00,
2013-12-23 12:46:00,51.4,51.4,29.89,ESE,118,0.0,0.0,100,0.08,,,0.28,VWS V14.01,2013-12-23 17:46:00,
2013-12-23 12:51:00,51.6,51.6,29.89,ESE,118,0.0,0.0,100,0.08,,,0.28,VWS V14.01,2013-12-23 17:51:00,
2013-12-23 12:56:00,51.6,51.6,29.89,ESE,118,0.0,0.0,100,0.08,,,0.28,VWS V14.01,2013-12-23 17:56:00,
2013-12-23 13:01:00,51.6,51.6,29.89,ESE,118,0.0,0.0,100,0.08,,OVC022,0.28,VWS V14.01,2013-12-23 18:01:00,
2013-12-23 13:06:00,51.4,51.4,29.89,ESE,118,0.0,0.0,100,0.08,,OVC022,0.28,VWS V14.01,2013-12-23 18:06:00,
2013-12-23 13:11:00,51.4,51.4,29.89,ESE,118,0.0,0.0,100,0.04,,OVC022,0.28,VWS V14.01,2013-12-23 18:11:00,
2013-12-23 13:16:00,51.4,51.4,29.92,ESE,118,0.0,0.0,100,0.04,,OVC022,0.28,VWS V14.01,2013-12-23 18:16:00,
2013-12-23 13:21:00,51.4,51.4,29.92,ESE,118,0.0,0.0,100,0.04,,OVC022,0.28,VWS V14.01,2013-12-23 18:21:00,
2013-12-23 13:26:00,51.4,51.4,29.92,ESE,118,0.0,0.0,100,0.04,,OVC022,0.28,VWS V14.01,2013-12-23 18:26:00,
2013-12-23 13:31:00,51.4,51.4,29.95,ESE,107,0.0,4.5,100,0.04,,OVC022,0.28,VWS V14.01,2013-12-23 18:31:00,
2013-12-23 13:36:00,51.4,51.4,29.95,ESE,107,4.5,6.3,100,0.04,,OVC022,0.28,VWS V14.01,2013-12-23 18:36:00,
2013-12-23 13:41:00,51.4,51.4,29.95,SE,138,0.0,4.5,100,0.04,,OVC022,0.28,VWS V14.01,2013-12-23 18:41:00,
2013-12-23 13:46:00,51.6,51.6,29.92,WNW,297,0.0,0.0,100,0.00,,OVC022,0.28,VWS V14.01,2013-12-23 18:46:00,
2013-12-23 13:51:00,51.8,51.8,29.92,West,273,0.0,0.0,100,0.04,,OVC022,0.31,VWS V14.01,2013-12-23 18:51:00,
2013-12-23 13:56:00,52.0,52.0,29.92,NNW,342,0.0,0.0,100,0.08,,OVC022,0.35,VWS V14.01,2013-12-23 18:56:00,
2013-12-23 14:01:00,52.0,52.0,29.95,North,353,0.0,0.0,100,0.08,,OVC022,0.35,VWS V14.01,2013-12-23 19:01:00,
2013-12-23 14:06:00,51.8,51.8,29.95,North,353,0.0,0.0,100,0.08,,OVC013,0.35,VWS V14.01,2013-12-23 19:06:00,
2013-12-23 14:11:00,51.6,51.6,29.95,NE,51,6.3,7.2,100,0.12,,OVC013,0.39,VWS V14.01,2013-12-23 19:11:00,
2013-12-23 14:16:00,51.1,51.1,29.92,NE,43,0.0,6.3,100,0.16,,OVC013,0.43,VWS V14.01,2013-12-23 19:16:00,
2013-12-23 14:21:00,50.5,50.5,29.92,NNE,24,0.0,7.2,100,0.16,,OVC013,0.43,VWS V14.01,2013-12-23 19:21:00,
2013-12-23 14:26:00,50.2,50.2,29.92,NNE,21,0.0,6.3,100,0.16,,OVC013,0.43,VWS V14.01,2013-12-23 19:26:00,
2013-12-23 14:31:00,49.8,49.8,29.95,North,3,0.0,5.4,100,0.16,,OVC013,0.43,VWS V14.01,2013-12-23 19:31:00,
2013-12-23 14:36:00,49.6,49.6,29.95,NNW,336,0.0,0.0,100,0.16,,OVC013,0.43,VWS V14.01,2013-12-23 19:36:00,
2013-12-23 14:40:00,49.5,49.5,29.95,North,6,5.4,7.2,100,0.16,,OVC013,0.43,VWS V14.01,2013-12-23 19:40:00,
2013-12-23 14:45:00,49.5,49.5,29.95,NNE,23,0.0,6.3,100,0.16,,OVC013,0.43,VWS V14.01,2013-12-23 19:45:00,
2013-12-23 14:50:00,49.3,49.3,29.95,NNE,23,0.0,0.0,100,0.12,,OVC013,0.43,VWS V14.01,2013-12-23 19:50:00,
2013-12-23 14:55:00,49.3,49.3,29.95,NNE,16,0.0,0.0,100,0.08,,OVC013,0.43,VWS V14.01,2013-12-23 19:55:00,
2013-12-23 15:00:00,49.1,49.1,29.95,NE,48,0.0,5.4,100,0.08,,OVC020,0.43,VWS V14.01,2013-12-23 20:00:00,
2013-12-23 15:05:00,49.1,49.1,29.95,NE,34,0.0,0.0,100,0.08,,OVC020,0.43,VWS V14.01,2013-12-23 20:05:00,
2013-12-23 15:10:00,49.1,49.1,29.95,NNE,27,0.0,0.0,100,0.04,,OVC020,0.43,VWS V14.01,2013-12-23 20:10:00,
2013-12-23 15:15:00,49.1,49.1,29.95,NE,43,5.4,5.4,100,0.04,,OVC020,0.43,VWS V14.01,2013-12-23 20:15:00,
2013-12-23 15:20:00,49.1,49.1,29.95,NE,43,0.0,0.0,100,0.00,,OVC020,0.43,VWS V14.01,2013-12-23 20:20:00,
2013-12-23 15:25:00,49.1,49.1,29.95,NE,43,0.0,0.0,100,0.00,,OVC020,0.43,VWS V14.01,2013-12-23 20:25:00,
2013-12-23 15:30:00,49.1,49.1,29.95,NE,37,0.0,0.0,100,0.00,,OVC020,0.43,VWS V14.01,2013-12-23 20:30:00,
2013-12-23 15:35:00,49.1,49.1,29.95,NE,35,0.0,0.0,100,0.00,,OVC020,0.43,VWS V14.01,2013-12-23 20:35:00,
2013-12-23 15:40:00,48.9,48.9,29.95,NE,35,0.0,0.0,100,0.00,,OVC020,0.43,VWS V14.01,2013-12-23 20:40:00,
2013-12-23 15:45:00,48.9,48.9,29.98,NNE,30,0.0,0.0,100,0.04,,OVC020,0.47,VWS V14.01,2013-12-23 20:45:00,
2013-12-23 15:50:00,48.9,48.9,29.98,NNE,30,0.0,0.0,100,0.04,,OVC020,0.47,VWS V14.01,2013-12-23 20:50:00,
2013-12-23 15:55:00,48.7,48.7,29.98,NNE,30,0.0,0.0,100,0.04,,OVC020,0.47,VWS V14.01,2013-12-23 20:55:00,
2013-12-23 16:00:00,48.7,48.7,29.98,NNE,30,0.0,0.0,100,0.04,,OVC020,0.47,VWS V14.01,2013-12-23 21:00:00,
2013-12-23 16:05:00,48.7,48.7,29.98,NNE,29,0.0,0.0,100,0.04,,OVC025,0.47,VWS V14.01,2013-12-23 21:05:00,
2013-12-23 16:10:00,48.7,48.7,29.98,NNE,29,0.0,0.0,100,0.04,,OVC025,0.47,VWS V14.01,2013-12-23 21:10:00,
2013-12-23 16:15:00,48.6,48.6,29.98,NNE,29,0.0,0.0,100,0.04,,OVC025,0.47,VWS V14.01,2013-12-23 21:15:00,
2013-12-23 16:20:00,48.6,48.6,29.98,NNE,29,0.0,0.0,100,0.04,,OVC025,0.47,VWS V14.01,2013-12-23 21:20:00,
2013-12-23 16:25:00,48.6,48.6,29.98,NNE,29,0.0,0.0,100,0.04,,OVC025,0.47,VWS V14.01,2013-12-23 21:25:00,
2013-12-23 16:30:00,48.4,48.4,30.01,NNE,29,0.0,0.0,100,0.08,,OVC025,0.51,VWS V14.01,2013-12-23 21:30:00,
2013-12-23 16:35:00,48.4,48.4,30.01,NNE,29,0.0,0.0,100,0.08,,OVC025,0.51,VWS V14.01,2013-12-23 21:35:00,
2013-12-23 16:40:00,48.4,48.4,30.01,NNE,29,0.0,0.0,100,0.08,,OVC025,0.51,VWS V14.01,2013-12-23 21:40:00,
2013-12-23 16:45:00,48.4,48.4,30.01,NNE,29,0.0,0.0,100,0.04,,OVC025,0.51,VWS V14.01,2013-12-23 21:45:00,
2013-12-23 16:50:00,48.2,48.2,30.01,NNE,29,0.0,0.0,100,0.04,,OVC025,0.51,VWS V14.01,2013-12-23 21:50:00,
2013-12-23 16:55:00,48.2,48.2,30.01,NNE,29,0.0,0.0,100,0.04,,OVC025,0.51,VWS V14.01,2013-12-23 21:55:00,
2013-12-23 17:00:00,48.2,48.2,30.01,NNE,29,0.0,0.0,100,0.04,,OVC025,0.51,VWS V14.01,2013-12-23 22:00:00,
2013-12-23 17:05:00,48.2,48.2,30.01,NNE,29,0.0,0.0,100,0.04,,OVC025,0.51,VWS V14.01,2013-12-23 22:05:00,
2013-12-23 17:10:00,48.2,48.2,30.01,NNE,29,0.0,0.0,100,0.04,,OVC025,0.51,VWS V14.01,2013-12-23 22:10:00,
2013-12-23 17:15:00,48.0,48.0,30.01,NNE,29,0.0,0.0,100,0.04,,OVC025,0.51,VWS V14.01,2013-12-23 22:15:00,
2013-12-23 17:20:00,48.0,48.0,30.01,NNE,29,0.0,0.0,100,0.04,,OVC025,0.51,VWS V14.01,2013-12-23 22:20:00,
2013-12-23 17:25:00,48.0,48.0,30.01,NNE,29,0.0,0.0,100,0.04,,OVC025,0.51,VWS V14.01,2013-12-23 22:25:00,
2013-12-23 17:30:00,48.0,48.0,30.01,NW,309,0.0,0.0,100,0.04,,OVC025,0.55,VWS V14.01,2013-12-23 22:30:00,
2013-12-23 17:35:00,48.0,48.0,30.01,NW,309,0.0,0.0,100,0.04,,OVC025,0.55,VWS V14.01,2013-12-23 22:35:00,
2013-12-23 17:40:00,48.0,48.0,30.01,NW,309,0.0,0.0,100,0.04,,OVC025,0.55,VWS V14.01,2013-12-23 22:40:00,
2013-12-23 17:45:00,48.0,48.0,30.03,NW,309,0.0,0.0,100,0.04,,OVC025,0.55,VWS V14.01,2013-12-23 22:45:00,
2013-12-23 17:50:00,48.0,48.0,30.03,NW,309,0.0,0.0,100,0.04,,OVC025,0.55,VWS V14.01,2013-12-23 22:50:00,
2013-12-23 17:55:00,48.0,48.0,30.03,NW,309,0.0,0.0,100,0.04,,OVC025,0.55,VWS V14.01,2013-12-23 22:55:00,
2013-12-23 18:00:00,48.0,48.0,30.01,NW,309,0.0,0.0,100,0.04,,OVC025,0.55,VWS V14.01,2013-12-23 23:00:00,
2013-12-23 18:05:00,47.8,47.8,30.01,NW,309,0.0,0.0,100,0.04,,OVC025,0.55,VWS V14.01,2013-12-23 23:05:00,
2013-12-23 18:10:00,47.8,47.8,30.01,NW,309,0.0,0.0,100,0.04,,OVC025,0.55,VWS V14.01,2013-12-23 23:10:00,
2013-12-23 18:15:00,48.0,48.0,30.03,NW,309,0.0,0.0,100,0.04,,OVC025,0.55,VWS V14.01,2013-12-23 23:15:00,
2013-12-23 18:20:00,48.0,48.0,30.03,NW,309,0.0,0.0,100,0.04,,OVC025,0.55,VWS V14.01,2013-12-23 23:20:00,
2013-12-23 18:25:00,48.0,48.0,30.03,NW,309,0.0,0.0,100,0.04,,OVC025,0.55,VWS V14.01,2013-12-23 23:25:00,
2013-12-23 18:30:00,48.0,48.0,30.03,NW,309,0.0,0.0,100,0.00,,OVC025,0.55,VWS V14.01,2013-12-23 23:30:00,
2013-12-23 18:35:00,48.0,48.0,30.03,NW,309,0.0,0.0,100,0.00,,OVC025,0.55,VWS V14.01,2013-12-23 23:35:00,
2013-12-23 18:40:00,47.7,47.7,30.03,NW,309,0.0,0.0,100,0.00,,OVC025,0.55,VWS V14.01,2013-12-23 23:40:00,
2013-12-23 18:45:00,47.7,47.7,30.03,NW,309,0.0,0.0,100,0.00,,OVC025,0.55,VWS V14.01,2013-12-23 23:45:00,
2013-12-23 18:50:00,47.5,47.5,30.03,NW,309,0.0,0.0,100,0.00,,OVC025,0.55,VWS V14.01,2013-12-23 23:50:00,
2013-12-23 18:55:00,47.5,47.5,30.03,NW,309,0.0,0.0,100,0.00,,OVC025,0.55,VWS V14.01,2013-12-23 23:55:00,
2013-12-23 19:00:00,47.3,47.3,30.03,NW,309,0.0,0.0,100,0.00,,OVC025,0.55,VWS V14.01,2013-12-24 00:00:00,
2013-12-23 19:05:00,47.3,47.3,30.03,NW,309,0.0,0.0,100,0.00,,OVC032,0.55,VWS V14.01,2013-12-24 00:05:00,
2013-12-23 19:10:00,47.3,47.3,30.03,NW,310,0.0,0.0,100,0.00,,OVC032,0.55,VWS V14.01,2013-12-24 00:10:00,
2013-12-23 19:15:00,47.3,47.3,30.03,NW,309,0.0,0.0,100,0.00,,OVC032,0.55,VWS V14.01,2013-12-24 00:15:00,
2013-12-23 19:20:00,47.3,47.3,30.03,NW,309,0.0,0.0,100,0.00,,OVC032,0.55,VWS V14.01,2013-12-24 00:20:00,
2013-12-23 19:25:00,47.1,47.1,30.03,NW,309,0.0,0.0,100,0.00,,OVC032,0.55,VWS V14.01,2013-12-24 00:25:00,
2013-12-23 19:30:00,47.1,47.1,30.03,NW,309,0.0,0.0,100,0.00,,OVC032,0.55,VWS V14.01,2013-12-24 00:30:00,
2013-12-23 19:35:00,47.1,47.1,30.03,NW,309,0.0,0.0,100,0.00,,OVC032,0.55,VWS V14.01,2013-12-24 00:35:00,
2013-12-23 19:40:00,47.1,47.1,30.03,NNW,344,0.0,0.0,100,0.00,,OVC032,0.55,VWS V14.01,2013-12-24 00:40:00,
2013-12-23 19:45:00,46.8,46.8,30.06,NNW,329,0.0,0.0,100,0.00,,OVC032,0.55,VWS V14.01,2013-12-24 00:45:00,
2013-12-23 19:50:00,46.2,46.2,30.06,North,349,0.0,0.0,100,0.00,,OVC032,0.55,VWS V14.01,2013-12-24 00:50:00,
2013-12-23 19:55:00,45.3,45.3,30.06,NNW,339,4.5,4.5,100,0.00,,OVC032,0.55,VWS V14.01,2013-12-24 00:55:00,
2013-12-23 20:00:00,44.6,44.6,30.06,NNW,341,0.0,9.8,100,0.00,,OVC032,0.55,VWS V14.01,2013-12-24 01:00:00,
2013-12-23 20:05:00,44.1,44.1,30.06,North,0,0.0,0.0,100,0.00,,OVC034,0.55,VWS V14.01,2013-12-24 01:05:00,
2013-12-23 20:10:00,43.7,43.6,30.06,NE,35,0.0,0.0,100,0.00,,OVC034,0.55,VWS V14.01,2013-12-24 01:10:00,
2013-12-23 20:15:00,43.5,43.3,30.09,North,357,0.0,0.0,99,0.00,,OVC034,0.55,VWS V14.01,2013-12-24 01:15:00,
2013-12-23 20:20:00,43.0,42.5,30.09,NNE,17,0.0,8.1,98,0.00,,OVC034,0.55,VWS V14.01,2013-12-24 01:20:00,
2013-12-23 20:25:00,42.8,42.2,30.09,North,4,0.0,5.4,98,0.00,,OVC034,0.55,VWS V14.01,2013-12-24 01:25:00,
2013-12-23 20:30:00,42.4,41.5,30.06,North,357,0.0,0.0,96,0.00,,OVC034,0.55,VWS V14.01,2013-12-24 01:30:00,
2013-12-23 20:35:00,42.3,41.3,30.06,NE,46,5.4,6.3,96,0.00,,OVC034,0.55,VWS V14.01,2013-12-24 01:35:00,
2013-12-23 20:40:00,41.7,40.4,30.06,NNE,33,8.1,8.1,95,0.00,,OVC034,0.55,VWS V14.01,2013-12-24 01:40:00,
2013-12-23 20:45:00,41.4,39.8,30.06,NNE,13,0.0,0.0,94,0.00,,OVC034,0.55,VWS V14.01,2013-12-24 01:45:00,
2013-12-23 20:50:00,41.2,39.3,30.06,NNE,25,0.0,0.0,93,0.00,,OVC034,0.55,VWS V14.01,2013-12-24 01:50:00,
2013-12-23 20:55:00,41.2,39.3,30.06,NNW,336,0.0,0.0,93,0.00,,OVC034,0.55,VWS V14.01,2013-12-24 01:55:00,
2013-12-23 21:00:00,41.2,39.5,30.09,NNW,337,0.0,0.0,94,0.00,,OVC034,0.55,VWS V14.01,2013-12-24 02:00:00,
2013-12-23 21:05:00,41.0,39.1,30.09,North,357,0.0,0.0,93,0.00,,BKN030,0.55,VWS V14.01,2013-12-24 02:05:00,
2013-12-23 21:10:00,40.8,38.8,30.09,NE,39,4.5,5.4,92,0.00,,BKN030,0.55,VWS V14.01,2013-12-24 02:10:00,
2013-12-23 21:15:00,40.6,38.2,30.09,North,8,0.0,0.0,91,0.00,,BKN030,0.55,VWS V14.01,2013-12-24 02:15:00,
2013-12-23 21:20:00,40.6,38.0,30.09,North,0,0.0,0.0,90,0.00,,BKN030,0.55,VWS V14.01,2013-12-24 02:20:00,
2013-12-23 21:25:00,40.6,37.8,30.09,North,0,0.0,0.0,90,0.04,,BKN030,0.59,VWS V14.01,2013-12-24 02:25:00,
2013-12-23 21:30:00,40.5,37.5,30.09,NNW,341,0.0,5.4,89,0.04,,BKN030,0.59,VWS V14.01,2013-12-24 02:30:00,
2013-12-23 21:35:00,40.3,37.1,30.09,North,353,0.0,0.0,88,0.04,,BKN030,0.59,VWS V14.01,2013-12-24 02:35:00,
2013-12-23 21:40:00,40.3,36.7,30.09,North,357,0.0,0.0,87,0.04,,BKN030,0.59,VWS V14.01,2013-12-24 02:40:00,
2013-12-23 21:45:00,40.3,36.3,30.09,North,0,0.0,0.0,86,0.04,,BKN030,0.59,VWS V14.01,2013-12-24 02:45:00,
2013-12-23 21:50:00,40.3,36.5,30.09,North,357,0.0,0.0,86,0.04,,BKN030,0.59,VWS V14.01,2013-12-24 02:50:00,
2013-12-23 21:55:00,40.3,36.5,30.09,North,0,0.0,0.0,86,0.04,,BKN030,0.59,VWS V14.01,2013-12-24 02:55:00,
2013-12-23 22:00:00,40.1,36.3,30.09,North,353,0.0,0.0,86,0.04,,BKN030,0.59,VWS V14.01,2013-12-24 03:00:00,
2013-12-23 22:05:00,39.9,36.1,30.09,North,1,0.0,0.0,86,0.04,,OVC028,0.59,VWS V14.01,2013-12-24 03:05:00,
2013-12-23 22:10:00,39.9,35.5,30.09,NNE,16,6.3,6.3,84,0.04,,OVC028,0.59,VWS V14.01,2013-12-24 03:10:00,
2013-12-23 22:15:00,39.7,35.2,30.09,NNE,15,0.0,0.0,83,0.04,,OVC028,0.59,VWS V14.01,2013-12-24 03:15:00,
2013-12-23 22:20:00,39.6,34.6,30.09,North,6,4.5,7.2,82,0.04,,OVC028,0.59,VWS V14.01,2013-12-24 03:20:00,
2013-12-23 22:25:00,39.4,33.8,30.09,NNE,12,5.4,5.4,80,0.00,,OVC028,0.59,VWS V14.01,2013-12-24 03:25:00,
2013-12-23 22:30:00,39.4,33.8,30.09,North,0,0.0,0.0,80,0.00,,OVC028,0.59,VWS V14.01,2013-12-24 03:30:00,
2013-12-23 22:35:00,39.4,34.0,30.09,North,0,4.5,4.5,81,0.00,,OVC028,0.59,VWS V14.01,2013-12-24 03:35:00,
2013-12-23 22:40:00,39.2,33.6,30.09,North,0,0.0,0.0,80,0.00,,OVC028,0.59,VWS V14.01,2013-12-24 03:40:00,
2013-12-23 22:45:00,39.0,33.2,30.09,NNW,348,0.0,0.0,79,0.00,,OVC028,0.59,VWS V14.01,2013-12-24 03:45:00,
2013-12-23 22:50:00,39.0,33.0,30.09,NNW,348,0.0,0.0,79,0.00,,OVC028,0.59,VWS V14.01,2013-12-24 03:50:00,
2013-12-23 22:55:00,38.8,32.6,30.09,North,349,0.0,0.0,78,0.00,,OVC028,0.59,VWS V14.01,2013-12-24 03:55:00,
2013-12-23 23:00:00,38.8,32.4,30.09,North,357,0.0,0.0,77,0.00,,OVC028,0.59,VWS V14.01,2013-12-24 04:00:00,
2013-12-23 23:05:00,38.7,32.0,30.09,NE,43,0.0,0.0,77,0.00,,OVC029,0.59,VWS V14.01,2013-12-24 04:05:00,
2013-12-23 23:10:00,38.7,32.0,30.09,North,0,5.4,5.4,77,0.00,,OVC029,0.59,VWS V14.01,2013-12-24 04:10:00,
2013-12-23 23:15:00,38.7,32.0,30.09,NNE,14,6.3,6.3,77,0.00,,OVC029,0.59,VWS V14.01,2013-12-24 04:15:00,
2013-12-23 23:20:00,38.7,32.0,30.09,NNE,17,5.4,7.2,77,0.00,,OVC029,0.59,VWS V14.01,2013-12-24 04:20:00,
2013-12-23 23:25:00,38.5,31.6,30.09,NE,44,0.0,7.2,76,0.00,,OVC029,0.59,VWS V14.01,2013-12-24 04:25:00,
2013-12-23 23:30:00,38.5,31.4,30.09,North,2,5.4,5.4,75,0.00,,OVC029,0.59,VWS V14.01,2013-12-24 04:30:00,
2013-12-23 23:35:00,38.5,31.6,30.09,North,357,0.0,6.3,76,0.00,,OVC029,0.59,VWS V14.01,2013-12-24 04:35:00,
2013-12-23 23:40:00,38.3,31.2,30.09,North,357,0.0,0.0,75,0.00,,OVC029,0.59,VWS V14.01,2013-12-24 04:40:00,
2013-12-23 23:45:00,38.1,30.8,30.09,ENE,57,5.4,5.4,75,0.00,,OVC029,0.59,VWS V14.01,2013-12-24 04:45:00,
2013-12-23 23:50:00,38.1,30.8,30.09,North,357,0.0,0.0,75,0.00,,OVC029,0.59,VWS V14.01,2013-12-24 04:50:00,
2013-12-23 23:55:00,37.9,30.4,30.09,NNE,20,5.4,8.1,74,0.00,,OVC029,0.59,VWS V14.01,2013-12-24 04:55:00,